Time,TemperatureF,DewpointF,PressureIn,WindDirection,WindDirectionDegrees,WindSpeedMPH,WindSpeedGustMPH,Humidity,HourlyPrecipIn,Conditions,Clouds,dailyrainin,SolarRadiationWatts/m^2,SoftwareType,DateUTC
2013-07-22 00:01:00,71.0,70.0,30.10,NW,325,0.0,0.0,98,0.00,,,0.11,0.000000,,2013-07-22 04:01:00,
2013-07-22 00:12:00,71.0,70.0,30.10,NW,325,0.0,0.0,98,0.00,,,0.11,0.000000,,2013-07-22 04:12:00,
2013-07-22 00:22:00,71.0,70.0,30.10,NW,325,0.0,0.0,98,0.00,,,0.11,0.000000,,2013-07-22 04:22:00,
2013-07-22 09:53:00,70.0,70.0,30.10,West,281,0.0,2.0,99,0.00,,,0.11,86.000000,,2013-07-22 13:53:00,
2013-07-22 10:02:00,70.0,70.0,30.10,West,281,0.0,2.0,99,0.00,,,0.11,86.000000,,2013-07-22 14:02:00,
2013-07-22 10:11:00,70.0,70.0,30.10,West,281,0.0,2.0,99,0.00,,,0.11,86.000000,,2013-07-22 14:11:00,
2013-07-22 10:22:00,71.0,71.0,30.09,West,281,0.0,3.0,99,0.00,,,0.11,83.000000,,2013-07-22 14:22:00,
2013-07-22 10:32:00,71.0,71.0,30.09,West,281,0.0,3.0,99,0.00,,,0.11,83.000000,,2013-07-22 14:32:00,
2013-07-22 10:53:00,73.0,73.0,30.09,West,281,0.0,3.0,99,0.00,,,0.11,285.000000,,2013-07-22 14:53:00,
2013-07-22 11:02:00,73.0,73.0,30.09,West,281,0.0,3.0,99,0.00,,,0.11,285.000000,,2013-07-22 15:02:00,
2013-07-22 11:11:00,73.0,73.0,30.09,West,281,0.0,3.0,99,0.00,,,0.11,285.000000,,2013-07-22 15:11:00,
2013-07-22 11:22:00,74.0,73.0,30.09,West,281,0.0,3.0,96,0.00,,,0.11,350.000000,,2013-07-22 15:22:00,
2013-07-22 11:33:00,74.0,73.0,30.09,West,281,0.0,3.0,96,0.00,,,0.11,350.000000,,2013-07-22 15:33:00,
2013-07-22 11:43:00,74.0,73.0,30.09,West,281,0.0,3.0,96,0.00,,,0.11,350.000000,,2013-07-22 15:43:00,
2013-07-22 11:52:00,76.0,73.0,30.09,West,281,0.0,3.0,89,0.00,,,0.11,185.000000,,2013-07-22 15:52:00,
2013-07-22 12:01:00,76.0,73.0,30.09,West,281,0.0,3.0,89,0.00,,,0.11,185.000000,,2013-07-22 16:01:00,
2013-07-22 12:11:00,76.0,73.0,30.09,West,281,0.0,3.0,89,0.00,,,0.11,185.000000,,2013-07-22 16:11:00,
2013-07-22 12:22:00,76.0,73.0,30.09,West,281,0.0,3.0,89,0.00,,,0.11,185.000000,,2013-07-22 16:22:00,
2013-07-22 12:32:00,76.0,73.0,30.09,West,281,0.0,3.0,89,0.00,,,0.11,185.000000,,2013-07-22 16:32:00,
2013-07-22 12:52:00,80.0,73.0,30.09,West,259,1.0,3.0,80,0.00,,,0.11,241.000000,,2013-07-22 16:52:00,
2013-07-22 13:01:00,80.0,73.0,30.09,West,259,1.0,3.0,80,0.00,,,0.11,241.000000,,2013-07-22 17:01:00,
2013-07-22 13:11:00,80.0,73.0,30.09,West,259,1.0,3.0,80,0.00,,,0.11,241.000000,,2013-07-22 17:11:00,
2013-07-22 13:32:00,81.0,73.0,30.08,West,261,0.0,4.0,77,0.00,,,0.11,664.000000,,2013-07-22 17:32:00,
2013-07-22 13:43:00,81.0,73.0,30.08,West,261,0.0,4.0,77,0.00,,,0.11,664.000000,,2013-07-22 17:43:00,
2013-07-22 13:52:00,82.0,72.0,30.06,WSW,255,3.0,5.0,72,0.00,,,0.11,292.000000,,2013-07-22 17:52:00,
2013-07-22 14:05:00,82.0,72.0,30.06,WSW,255,3.0,5.0,72,0.00,,,0.11,292.000000,,2013-07-22 18:05:00,
2013-07-22 14:38:00,77.0,73.0,30.05,WSW,255,1.0,2.0,88,0.01,,,0.12,912.000000,,2013-07-22 18:38:00,
2013-07-22 14:55:00,77.0,73.0,30.05,WSW,255,1.0,2.0,88,0.01,,,0.12,912.000000,,2013-07-22 18:55:00,
2013-07-22 15:03:00,79.0,74.0,30.04,WSW,257,0.0,5.0,86,0.06,,,0.18,88.000000,,2013-07-22 19:03:00,
2013-07-22 15:05:00,83.0,75.0,30.04,WSW,254,1.0,5.0,78,0.01,,,0.12,1153.000000,,2013-07-22 19:05:00,
2013-07-22 15:16:00,83.0,75.0,30.04,WSW,254,1.0,5.0,78,0.01,,,0.12,1153.000000,,2013-07-22 19:16:00,
2013-07-22 15:25:00,79.0,74.0,30.04,WSW,257,0.0,5.0,86,0.06,,,0.18,88.000000,,2013-07-22 19:25:00,
2013-07-22 15:47:00,79.0,74.0,30.04,WSW,257,0.0,5.0,86,0.06,,,0.18,88.000000,,2013-07-22 19:47:00,
2013-07-22 15:55:00,79.0,74.0,30.04,WSW,257,0.0,5.0,86,0.06,,,0.18,88.000000,,2013-07-22 19:55:00,
2013-07-22 16:52:00,80.0,75.0,29.99,WSW,257,0.0,1.0,85,0.00,,,0.19,111.000000,,2013-07-22 20:52:00,
2013-07-22 17:01:00,80.0,75.0,29.99,WSW,257,0.0,1.0,85,0.00,,,0.19,111.000000,,2013-07-22 21:01:00,
2013-07-22 17:12:00,80.0,75.0,29.99,WSW,257,0.0,1.0,85,0.00,,,0.19,111.000000,,2013-07-22 21:12:00,
2013-07-22 17:32:00,81.0,74.0,29.98,WSW,257,0.0,4.0,80,0.00,,,0.19,77.000000,,2013-07-22 21:32:00,
2013-07-22 17:43:00,81.0,74.0,29.98,WSW,257,0.0,4.0,80,0.00,,,0.19,77.000000,,2013-07-22 21:43:00,
2013-07-22 17:53:00,82.0,74.0,29.98,WNW,290,1.0,3.0,78,0.00,,,0.19,102.000000,,2013-07-22 21:53:00,
2013-07-22 18:01:00,82.0,74.0,29.98,WNW,290,1.0,3.0,78,0.00,,,0.19,102.000000,,2013-07-22 22:01:00,
2013-07-22 18:11:00,82.0,74.0,29.98,WNW,290,1.0,3.0,78,0.00,,,0.19,102.000000,,2013-07-22 22:11:00,
2013-07-22 18:32:00,81.0,75.0,29.96,WNW,290,0.0,4.0,81,0.00,,,0.19,137.000000,,2013-07-22 22:32:00,
2013-07-22 18:43:00,81.0,75.0,29.96,WNW,290,0.0,4.0,81,0.00,,,0.19,137.000000,,2013-07-22 22:43:00,
2013-07-22 18:52:00,81.0,73.0,29.97,WSW,250,2.0,6.0,77,0.00,,,0.19,79.000000,,2013-07-22 22:52:00,
2013-07-22 19:01:00,81.0,73.0,29.97,WSW,250,2.0,6.0,77,0.00,,,0.19,79.000000,,2013-07-22 23:01:00,
2013-07-22 19:11:00,81.0,73.0,29.97,WSW,250,2.0,6.0,77,0.00,,,0.19,79.000000,,2013-07-22 23:11:00,
2013-07-22 19:22:00,80.0,73.0,29.96,WSW,250,0.0,3.0,80,0.00,,,0.19,84.000000,,2013-07-22 23:22:00,
2013-07-22 19:32:00,80.0,73.0,29.96,WSW,250,0.0,3.0,80,0.00,,,0.19,84.000000,,2013-07-22 23:32:00,
2013-07-22 19:43:00,80.0,73.0,29.96,WSW,250,0.0,3.0,80,0.00,,,0.19,84.000000,,2013-07-22 23:43:00,
2013-07-22 19:52:00,81.0,73.0,29.98,WSW,246,2.0,5.0,78,0.00,,,0.19,49.000000,,2013-07-22 23:52:00,
2013-07-22 20:01:00,81.0,73.0,29.98,WSW,246,2.0,5.0,78,0.00,,,0.19,49.000000,,2013-07-23 00:01:00,
2013-07-22 20:12:00,81.0,73.0,29.98,WSW,246,2.0,5.0,78,0.00,,,0.19,49.000000,,2013-07-23 00:12:00,
2013-07-22 20:22:00,80.0,74.0,29.99,WSW,257,2.0,4.0,81,0.00,,,0.17,14.000000,,2013-07-23 00:22:00,
2013-07-22 20:32:00,80.0,74.0,29.99,WSW,257,2.0,4.0,81,0.00,,,0.17,14.000000,,2013-07-23 00:32:00,
2013-07-22 20:43:00,80.0,74.0,29.99,WSW,257,2.0,4.0,81,0.00,,,0.17,14.000000,,2013-07-23 00:43:00,
2013-07-22 20:52:00,79.0,74.0,30.00,WSW,257,1.0,3.0,84,0.00,,,0.17,0.000000,,2013-07-23 00:52:00,
2013-07-22 21:01:00,79.0,74.0,30.00,WSW,257,1.0,3.0,84,0.00,,,0.17,0.000000,,2013-07-23 01:01:00,
2013-07-22 21:11:00,79.0,74.0,30.00,WSW,257,1.0,3.0,84,0.00,,,0.17,0.000000,,2013-07-23 01:11:00,
2013-07-22 21:22:00,78.0,73.0,30.00,WSW,256,2.0,5.0,85,0.00,,,0.17,0.000000,,2013-07-23 01:22:00,
2013-07-22 21:32:00,78.0,73.0,30.00,WSW,256,2.0,5.0,85,0.00,,,0.17,0.000000,,2013-07-23 01:32:00,
2013-07-22 21:43:00,78.0,73.0,30.00,WSW,256,2.0,5.0,85,0.00,,,0.17,0.000000,,2013-07-23 01:43:00,
2013-07-22 21:53:00,78.0,73.0,30.00,WSW,256,2.0,5.0,85,0.00,,,0.17,0.000000,,2013-07-23 01:53:00,
2013-07-22 22:02:00,78.0,73.0,30.00,WSW,256,2.0,5.0,85,0.00,,,0.17,0.000000,,2013-07-23 02:02:00,
2013-07-22 22:53:00,75.0,71.0,30.01,WSW,253,2.0,7.0,88,0.00,,,0.08,0.000000,,2013-07-23 02:53:00,
2013-07-22 23:02:00,75.0,71.0,30.01,WSW,253,2.0,7.0,88,0.00,,,0.08,0.000000,,2013-07-23 03:02:00,
2013-07-22 23:11:00,75.0,71.0,30.01,WSW,253,2.0,7.0,88,0.00,,,0.08,0.000000,,2013-07-23 03:11:00,
2013-07-22 23:33:00,74.0,71.0,30.02,WSW,255,2.0,4.0,89,0.00,,,0.08,0.000000,,2013-07-23 03:33:00,
2013-07-22 23:43:00,74.0,71.0,30.02,WSW,255,2.0,4.0,89,0.00,,,0.08,0.000000,,2013-07-23 03:43:00,
2013-07-22 23:52:00,74.0,71.0,30.02,WSW,255,1.0,4.0,90,0.00,,,0.08,0.000000,,2013-07-23 03:52:00,